Time,TemperatureF,DewpointF,PressureIn,WindDirection,WindDirectionDegrees,WindSpeedMPH,WindSpeedGustMPH,Humidity,HourlyPrecipIn,Conditions,Clouds,dailyrainin,SoftwareType,DateUTC
2015-08-28 00:03:00,70.0,54.0,29.94,North,0,0.0,0.0,56,-99.99,,,-99.99,,2015-08-28 07:03:00,
2015-08-28 00:13:00,69.0,53.0,29.94,North,0,0.0,0.0,56,-99.99,,,-99.99,,2015-08-28 07:13:00,
2015-08-28 00:23:00,69.0,53.0,29.94,North,0,0.0,0.0,56,-99.99,,,-99.99,,2015-08-28 07:23:00,
2015-08-28 00:33:00,69.0,53.0,29.93,North,0,0.0,0.0,57,-99.99,,,-99.99,,2015-08-28 07:33:00,
2015-08-28 00:44:00,68.0,53.0,29.93,North,0,0.0,0.0,58,-99.99,,,-99.99,,2015-08-28 07:44:00,
2015-08-28 01:03:00,68.0,53.0,29.94,North,0,0.0,0.0,58,-99.99,,,-99.99,,2015-08-28 08:03:00,
2015-08-28 01:12:00,67.0,53.0,29.94,North,0,0.0,0.0,60,-99.99,,,-99.99,,2015-08-28 08:12:00,
2015-08-28 01:23:00,67.0,53.0,29.93,North,0,0.0,0.0,60,-99.99,,,-99.99,,2015-08-28 08:23:00,
2015-08-28 01:33:00,67.0,53.0,29.94,North,0,0.0,0.0,60,-99.99,,,-99.99,,2015-08-28 08:33:00,
2015-08-28 01:44:00,66.0,52.0,29.93,North,0,0.0,0.0,61,-99.99,,,-99.99,,2015-08-28 08:44:00,
2015-08-28 01:53:00,66.0,52.0,29.93,North,0,0.0,0.0,61,-99.99,,,-99.99,,2015-08-28 08:53:00,
2015-08-28 02:03:00,66.0,53.0,29.93,North,0,0.0,0.0,62,-99.99,,,-99.99,,2015-08-28 09:03:00,
2015-08-28 02:12:00,65.0,52.0,29.93,North,0,0.0,0.0,62,-99.99,,,-99.99,,2015-08-28 09:12:00,
2015-08-28 02:23:00,65.0,52.0,29.93,North,0,0.0,0.0,62,-99.99,,,-99.99,,2015-08-28 09:23:00,
2015-08-28 02:33:00,65.0,52.0,29.93,North,0,0.0,0.0,62,-99.99,,,-99.99,,2015-08-28 09:33:00,
2015-08-28 02:44:00,65.0,52.0,29.93,North,0,0.0,0.0,63,-99.99,,,-99.99,,2015-08-28 09:44:00,
2015-08-28 03:03:00,64.0,51.0,29.92,North,0,0.0,0.0,63,-99.99,,,-99.99,,2015-08-28 10:03:00,
2015-08-28 03:12:00,64.0,52.0,29.92,North,0,0.0,0.0,64,-99.99,,,-99.99,,2015-08-28 10:12:00,
2015-08-28 03:23:00,64.0,52.0,29.92,North,0,0.0,0.0,64,-99.99,,,-99.99,,2015-08-28 10:23:00,
2015-08-28 03:33:00,63.0,51.0,29.92,North,0,0.0,0.0,64,-99.99,,,-99.99,,2015-08-28 10:33:00,
2015-08-28 03:43:00,63.0,51.0,29.92,North,0,0.0,0.0,65,-99.99,,,-99.99,,2015-08-28 10:43:00,
2015-08-28 03:53:00,63.0,51.0,29.92,North,0,0.0,0.0,65,-99.99,,,-99.99,,2015-08-28 10:53:00,
2015-08-28 04:03:00,63.0,51.0,29.91,North,0,0.0,0.0,66,-99.99,,,-99.99,,2015-08-28 11:03:00,
2015-08-28 04:12:00,63.0,51.0,29.91,North,0,0.0,0.0,66,-99.99,,,-99.99,,2015-08-28 11:12:00,
2015-08-28 04:24:00,62.0,51.0,29.91,North,0,0.0,0.0,66,-99.99,,,-99.99,,2015-08-28 11:24:00,
2015-08-28 04:35:00,62.0,51.0,29.91,North,0,0.0,0.0,67,-99.99,,,-99.99,,2015-08-28 11:35:00,
2015-08-28 04:43:00,62.0,51.0,29.90,North,0,0.0,0.0,67,-99.99,,,-99.99,,2015-08-28 11:43:00,
2015-08-28 04:53:00,62.0,51.0,29.90,North,0,0.0,0.0,68,-99.99,,,-99.99,,2015-08-28 11:53:00,
2015-08-28 05:04:00,62.0,51.0,29.90,North,0,0.0,0.0,68,-99.99,,,-99.99,,2015-08-28 12:04:00,
2015-08-28 05:13:00,62.0,51.0,29.89,North,0,0.0,0.0,68,-99.99,,,-99.99,,2015-08-28 12:13:00,
2015-08-28 05:23:00,62.0,52.0,29.89,North,0,0.0,0.0,69,-99.99,,,-99.99,,2015-08-28 12:23:00,
2015-08-28 05:33:00,61.0,51.0,29.89,North,0,0.0,0.0,69,-99.99,,,-99.99,,2015-08-28 12:33:00,
2015-08-28 05:43:00,61.0,51.0,29.89,North,0,0.0,0.0,69,-99.99,,,-99.99,,2015-08-28 12:43:00,
2015-08-28 05:53:00,61.0,51.0,29.88,North,0,0.0,0.0,70,-99.99,,,-99.99,,2015-08-28 12:53:00,
2015-08-28 06:04:00,61.0,51.0,29.88,North,0,0.0,0.0,70,-99.99,,,-99.99,,2015-08-28 13:04:00,
2015-08-28 06:13:00,61.0,52.0,29.88,North,0,0.0,0.0,71,-99.99,,,-99.99,,2015-08-28 13:13:00,
2015-08-28 06:33:00,61.0,52.0,29.88,North,0,0.0,0.0,71,-99.99,,,-99.99,,2015-08-28 13:33:00,
2015-08-28 06:44:00,61.0,52.0,29.88,North,0,0.0,0.0,71,-99.99,,,-99.99,,2015-08-28 13:44:00,
2015-08-28 06:53:00,60.0,51.0,29.88,North,0,0.0,0.0,72,-99.99,,,-99.99,,2015-08-28 13:53:00,
2015-08-28 07:03:00,60.0,51.0,29.88,North,0,0.0,0.0,73,-99.99,,,-99.99,,2015-08-28 14:03:00,
2015-08-28 07:13:00,60.0,51.0,29.88,North,0,0.0,0.0,73,-99.99,,,-99.99,,2015-08-28 14:13:00,
2015-08-28 07:23:00,61.0,53.0,29.89,North,0,0.0,0.0,74,-99.99,,,-99.99,,2015-08-28 14:23:00,
2015-08-28 07:33:00,61.0,53.0,29.89,North,0,0.0,0.0,75,-99.99,,,-99.99,,2015-08-28 14:33:00,
2015-08-28 07:43:00,61.0,53.0,29.88,North,0,0.0,0.0,75,-99.99,,,-99.99,,2015-08-28 14:43:00,
2015-08-28 07:53:00,61.0,53.0,29.89,North,0,0.0,0.0,76,-99.99,,,-99.99,,2015-08-28 14:53:00,
2015-08-28 08:03:00,62.0,55.0,29.89,North,0,0.0,0.0,77,-99.99,,,-99.99,,2015-08-28 15:03:00,
2015-08-28 08:12:00,62.0,55.0,29.89,North,0,0.0,0.0,77,-99.99,,,-99.99,,2015-08-28 15:12:00,
2015-08-28 08:24:00,64.0,57.0,29.89,North,0,0.0,0.0,78,-99.99,,,-99.99,,2015-08-28 15:24:00,
2015-08-28 08:33:00,64.0,57.0,29.89,North,0,0.0,0.0,78,-99.99,,,-99.99,,2015-08-28 15:33:00,
2015-08-28 08:47:00,66.0,58.0,29.89,North,5,0.0,0.0,76,-99.99,,,-99.99,,2015-08-28 15:47:00,
2015-08-28 08:53:00,66.0,58.0,29.89,North,5,0.0,0.0,76,-99.99,,,-99.99,,2015-08-28 15:53:00,
2015-08-28 09:03:00,67.0,59.0,29.89,North,5,0.0,0.0,75,-99.99,,,-99.99,,2015-08-28 16:03:00,
2015-08-28 09:12:00,69.0,60.0,29.89,North,5,0.0,0.0,72,-99.99,,,-99.99,,2015-08-28 16:12:00,
2015-08-28 09:23:00,70.0,59.0,29.89,North,5,0.0,0.0,69,-99.99,,,-99.99,,2015-08-28 16:23:00,
2015-08-28 09:33:00,74.0,60.0,29.89,North,11,0.0,0.0,61,-99.99,,,-99.99,,2015-08-28 16:33:00,
2015-08-28 09:43:00,75.0,59.0,29.89,NNE,28,0.0,1.0,57,-99.99,,,-99.99,,2015-08-28 16:43:00,
2015-08-28 09:53:00,77.0,62.0,29.89,NNE,28,0.0,0.0,59,-99.99,,,-99.99,,2015-08-28 16:53:00,
2015-08-28 10:03:00,77.0,60.0,29.89,NNE,28,0.0,2.0,55,-99.99,,,-99.99,,2015-08-28 17:03:00,
2015-08-28 10:13:00,78.0,59.0,29.89,NNE,26,0.0,0.0,53,-99.99,,,-99.99,,2015-08-28 17:13:00,
2015-08-28 10:23:00,80.0,61.0,29.89,NNE,31,0.0,1.0,53,-99.99,,,-99.99,,2015-08-28 17:23:00,
2015-08-28 10:33:00,79.0,60.0,29.89,NE,40,0.0,2.0,52,-99.99,,,-99.99,,2015-08-28 17:33:00,
2015-08-28 10:43:00,80.0,60.0,29.89,NNE,25,0.0,3.0,50,-99.99,,,-99.99,,2015-08-28 17:43:00,
2015-08-28 10:53:00,81.0,62.0,29.89,NE,40,0.0,0.0,52,-99.99,,,-99.99,,2015-08-28 17:53:00,
2015-08-28 11:03:00,82.0,63.0,29.88,NE,38,0.0,0.0,53,-99.99,,,-99.99,,2015-08-28 18:03:00,
2015-08-28 11:12:00,83.0,65.0,29.88,NE,41,0.0,0.0,54,-99.99,,,-99.99,,2015-08-28 18:12:00,
2015-08-28 11:23:00,83.0,64.0,29.88,NE,35,0.0,1.0,53,-99.99,,,-99.99,,2015-08-28 18:23:00,
2015-08-28 11:33:00,83.0,64.0,29.88,NE,53,0.0,2.0,52,-99.99,,,-99.99,,2015-08-28 18:33:00,
2015-08-28 11:43:00,86.0,63.0,29.88,NE,44,0.0,4.0,47,-99.99,,,-99.99,,2015-08-28 18:43:00,
2015-08-28 11:53:00,86.0,64.0,29.88,NE,37,0.0,4.0,48,-99.99,,,-99.99,,2015-08-28 18:53:00,
2015-08-28 12:03:00,88.0,65.0,29.87,NE,35,0.0,0.0,46,-99.99,,,-99.99,,2015-08-28 19:03:00,
2015-08-28 12:12:00,88.0,63.0,29.87,NNE,23,0.0,2.0,43,-99.99,,,-99.99,,2015-08-28 19:12:00,
2015-08-28 12:23:00,87.0,62.0,29.87,NE,46,0.0,4.0,44,-99.99,,,-99.99,,2015-08-28 19:23:00,
2015-08-28 12:33:00,87.0,62.0,29.87,NNE,17,1.0,5.0,44,-99.99,,,-99.99,,2015-08-28 19:33:00,
2015-08-28 12:44:00,89.0,61.0,29.86,NNE,19,0.0,5.0,40,-99.99,,,-99.99,,2015-08-28 19:44:00,
2015-08-28 12:54:00,90.0,64.0,29.86,NNE,15,0.0,4.0,42,-99.99,,,-99.99,,2015-08-28 19:54:00,
2015-08-28 13:03:00,91.0,63.0,29.86,NNE,19,0.0,2.0,39,-99.99,,,-99.99,,2015-08-28 20:03:00,
2015-08-28 13:12:00,91.0,65.0,29.86,NE,40,0.0,0.0,42,-99.99,,,-99.99,,2015-08-28 20:12:00,
2015-08-28 13:23:00,91.0,64.0,29.85,NE,44,0.0,5.0,41,-99.99,,,-99.99,,2015-08-28 20:23:00,
2015-08-28 13:33:00,90.0,62.0,29.85,North,11,0.0,5.0,40,-99.99,,,-99.99,,2015-08-28 20:33:00,
2015-08-28 13:43:00,91.0,63.0,29.85,NE,40,1.0,6.0,40,-99.99,,,-99.99,,2015-08-28 20:43:00,
2015-08-28 13:53:00,91.0,63.0,29.85,North,355,1.0,6.0,39,-99.99,,,-99.99,,2015-08-28 20:53:00,
2015-08-28 14:04:00,91.0,61.0,29.85,North,349,0.0,3.0,37,-99.99,,,-99.99,,2015-08-28 21:04:00,
2015-08-28 14:13:00,91.0,62.0,29.85,NNE,28,1.0,5.0,38,-99.99,,,-99.99,,2015-08-28 21:13:00,
2015-08-28 14:23:00,93.0,64.0,29.84,NNW,346,0.0,6.0,38,-99.99,,,-99.99,,2015-08-28 21:23:00,
2015-08-28 14:33:00,92.0,61.0,29.84,NNE,15,1.0,8.0,36,-99.99,,,-99.99,,2015-08-28 21:33:00,
2015-08-28 14:53:00,91.0,63.0,29.83,NE,46,1.0,6.0,39,-99.99,,,-99.99,,2015-08-28 21:53:00,
2015-08-28 15:03:00,91.0,63.0,29.83,NE,38,1.0,9.0,40,-99.99,,,-99.99,,2015-08-28 22:03:00,
2015-08-28 15:23:00,91.0,63.0,29.82,NE,51,0.0,4.0,40,-99.99,,,-99.99,,2015-08-28 22:23:00,
2015-08-28 15:33:00,92.0,63.0,29.82,NNE,27,0.0,3.0,38,-99.99,,,-99.99,,2015-08-28 22:33:00,
2015-08-28 15:53:00,94.0,60.0,29.81,North,11,1.0,6.0,32,-99.99,,,-99.99,,2015-08-28 22:53:00,
2015-08-28 16:03:00,94.0,59.0,29.81,NNW,338,0.0,0.0,31,-99.99,,,-99.99,,2015-08-28 23:03:00,
2015-08-28 16:13:00,94.0,58.0,29.81,WNW,285,0.0,2.0,30,-99.99,,,-99.99,,2015-08-28 23:13:00,
2015-08-28 16:33:00,94.0,58.0,29.81,West,259,1.0,6.0,30,-99.99,,,-99.99,,2015-08-28 23:33:00,
2015-08-28 16:43:00,94.0,58.0,29.81,WNW,300,1.0,9.0,30,-99.99,,,-99.99,,2015-08-28 23:43:00,
2015-08-28 16:53:00,93.0,55.0,29.81,SSW,200,3.0,11.0,28,-99.99,,,-99.99,,2015-08-28 23:53:00,
2015-08-28 17:03:00,93.0,56.0,29.81,SSE,155,1.0,11.0,29,-99.99,,,-99.99,,2015-08-29 00:03:00,
2015-08-28 17:13:00,93.0,56.0,29.81,SSW,197,1.0,6.0,29,-99.99,,,-99.99,,2015-08-29 00:13:00,
2015-08-28 17:23:00,93.0,57.0,29.81,WNW,292,0.0,6.0,30,-99.99,,,-99.99,,2015-08-29 00:23:00,